This is the latest recevied weather packets stored in our database for station/object AB2HM. If no packets are shown the sender has not sent any weather packets the latest 10 day(s).
| Time | Temp. | Humidity | Pressure | Rain* | Wind** | Luminosity | Snow |
|---|---|---|---|---|---|---|---|
| 1788119762 | 29.44° C | 57% | 1020.3 hPa | 0 mm | - | - | - |
| 1788117957 | 29.44° C | 55% | 1020.6 hPa | 0 mm | - | - | - |
| 1788116152 | 30.56° C | 54% | 1020.9 hPa | 0 mm | - | - | - |
| 1788114347 | 30.56° C | 55% | 1021.2 hPa | 0 mm | - | - | - |
| 1788112546 | 29.44° C | 59% | 1021.5 hPa | 0 mm | - | - | - |
| 1788110743 | 29.44° C | 58% | 1022.1 hPa | 0 mm | - | - | - |
| 1788108937 | 28.89° C | 60% | 1022.4 hPa | 0 mm | - | - | - |
| 1788107128 | 28.89° C | 59% | 1022.7 hPa | 0 mm | - | - | - |
| 1788105321 | 28.33° C | 61% | 1022.7 hPa | 0 mm | - | - | - |
| 1788103512 | 27.78° C | 63% | 1022.9 hPa | 0 mm | - | - | - |
| 1788101703 | 26.67° C | 69% | 1022.8 hPa | 0 mm | - | - | - |
| 1788099897 | 25.56° C | 73% | 1023.3 hPa | 0 mm | - | - | - |
| 1788098105 | 23.89° C | 78% | 1023.6 hPa | 0 mm | - | - | - |
| 1788096292 | 22.78° C | 84% | 1023.9 hPa | 0 mm | - | - | - |
| 1788094490 | 21.11° C | 87% | 1024.2 hPa | 0 mm | - | - | - |
| 1788092684 | 20.56° C | 90% | 1024.4 hPa | 0 mm | - | - | - |
| 1788090882 | 18.89° C | 92% | 1024.5 hPa | 0 mm | - | - | - |
| 1788089063 | 17.78° C | 92% | 1024.4 hPa | 0 mm | - | - | - |
| 1788087243 | 17.22° C | 91% | 1024.5 hPa | 0 mm | - | - | - |
| 1788085442 | 16.67° C | 91% | 1024.3 hPa | 0 mm | - | - | - |
| 1788083639 | 17.22° C | 91% | 1024.3 hPa | 0 mm | - | - | - |
| 1788081831 | 16.67° C | 91% | 1024.4 hPa | 0 mm | - | - | - |
| 1788080032 | 16.67° C | 91% | 1024.2 hPa | 0 mm | - | - | - |
| 1788078229 | 16.67° C | 91% | 1024.5 hPa | 0 mm | - | - | - |
| 1788076427 | 16.67° C | 91% | 1024.7 hPa | 0 mm | - | - | - |
* Rain latest hour (hover to see other rain measurements)
** Current wind speed in m/s (hover to see current wind gust speed)